Weather reports worldwide

Advertisment
San Jose, ca, United States of America (2074876): temperature & dewpoint: 06.12.2019 08:00:00 - 12.12.2019 08:00:00 (PST)San Jose, ca, United States of America (2074876): wind speed & gusts: 06.12.2019 08:00:00 - 12.12.2019 08:00:00 (PST)San Jose, ca, United States of America (2074876): wind direction: 06.12.2019 08:00:00 - 12.12.2019 08:00:00 (PST)San Jose, ca, United States of America (2074876): reduced air pressure: 06.12.2019 08:00:00 - 12.12.2019 08:00:00 (PST)San Jose, ca, United States of America (2074876): visibility: 06.12.2019 08:00:00 - 12.12.2019 08:00:00 (PST)San Jose, ca, United States of America (2074876): precipitation: 06.12.2019 08:00:00 - 12.12.2019 08:00:00 (PST)
Date & Time tt [°C] td [°C] ff [km/h] ff [kn] fx [km/h] fx [kn] dd ppp [hPa] vv [km] rr [mm]
12.12.2019 08:00:00 15,6 12,8 15 8 - - SSE 1025,3 16 -
12.12.2019 07:00:00 15,0 12,2 18 10 - - SSE 1024,6 16 -
12.12.2019 06:00:00 15,6 12,2 13 7 - - SE 1024,3 16 -
12.12.2019 05:00:00 15,6 12,2 18 10 - - SSE 1023,7 16 -
12.12.2019 04:00:00 15,6 11,7 15 8 - - SSE 1023,6 16 -
12.12.2019 03:00:00 15,6 11,7 18 10 - - SSE 1023,1 16 -
12.12.2019 02:00:00 15,6 11,7 5 3 - - SSE 1023,0 16 -
12.12.2019 01:00:00 15,6 11,1 8 4 - - S 1022,4 16 -
12.12.2019 00:00:00 16,1 10,6 9 5 - - SSE 1022,6 16 -
11.12.2019 23:00:00 16,1 11,7 11 6 - - SSE 1022,7 16 -
11.12.2019 22:00:00 16,1 11,7 11 6 - - S 1022,6 16 -
11.12.2019 21:00:00 16,1 10,6 15 8 - - S 1022,3 16 -
11.12.2019 20:00:00 15,6 11,1 16 9 - - SSE 1021,9 16 -
11.12.2019 19:00:00 16,1 11,7 21 11 - - SSE 1022,0 16 -
11.12.2019 18:00:00 16,1 11,1 16 9 - - SSE 1021,6 16 -
11.12.2019 17:00:00 16,7 11,7 15 8 - - SSE 1022,1 16 -
11.12.2019 16:00:00 16,7 11,1 22 12 - - SE 1022,1 16 -
11.12.2019 15:00:00 17,2 11,1 16 9 - - SSE 1022,1 16 -
11.12.2019 14:00:00 17,2 9,4 18 10 - - SSE 1022,0 16 -
11.12.2019 13:00:00 16,7 8,9 15 8 - - SSE 1022,8 16 -
11.12.2019 12:00:00 16,1 8,3 15 8 - - S 1023,4 16 -
11.12.2019 11:00:00 15,6 8,3 16 9 - - S 1023,7 16 -
11.12.2019 10:00:00 15,0 8,3 15 8 - - SSE 1023,7 16 -
11.12.2019 09:00:00 14,4 8,9 15 8 - - SSE 1023,2 16 -
11.12.2019 08:00:00 13,3 9,4 8 4 - - S 1023,0 16 -
11.12.2019 07:00:00 12,8 9,4 11 6 - - SSE 1023,1 16 -
11.12.2019 06:00:00 12,8 9,4 15 8 - - SSE 1023,2 16 -
11.12.2019 05:00:00 12,8 10,0 16 9 - - S 1022,7 16 -
11.12.2019 04:00:00 12,2 10,0 11 6 - - SSE 1023,0 16 -
11.12.2019 03:00:00 12,2 10,0 13 7 - - SSE 1022,7 16 -
11.12.2019 02:00:00 12,2 10,0 13 7 - - SSE 1023,3 16 -
11.12.2019 01:00:00 12,8 10,6 13 7 - - SE 1024,0 13 -
11.12.2019 00:00:00 12,8 10,6 15 8 - - SE 1023,9 11 -
10.12.2019 23:00:00 12,2 10,6 8 4 - - SW 1023,7 10 0,3
10.12.2019 22:00:00 12,2 10,6 11 6 - - SE 1023,2 8 0,8
10.12.2019 21:00:00 12,8 10,6 5 3 - - - 1024,1 10 0,3
10.12.2019 20:00:00 12,8 9,4 16 9 - - NNW 1023,3 16 -
10.12.2019 19:00:00 13,9 9,4 16 9 - - NNW 1023,3 16 -
10.12.2019 18:00:00 14,4 8,9 9 5 - - W 1021,9 16 -
10.12.2019 17:00:00 15,0 8,3 5 3 - - NNE 1021,4 16 -
10.12.2019 16:00:00 15,0 8,3 11 6 - - NNW 1021,8 16 -
10.12.2019 15:00:00 16,7 8,9 5 3 - - NW 1022,0 16 -
10.12.2019 14:00:00 16,1 8,3 5 3 - - W 1022,5 16 -
10.12.2019 13:00:00 15,6 8,9 11 6 - - NNW 1022,9 16 -
10.12.2019 12:00:00 15,0 8,3 5 3 - - NW 1023,8 16 -
10.12.2019 11:00:00 13,9 8,3 5 3 - - SSE 1024,1 16 -
10.12.2019 10:00:00 12,8 8,9 9 5 - - SSW 1024,6 15 -
10.12.2019 09:00:00 11,1 8,9 5 3 - - ESE 1024,9 15 -
10.12.2019 08:00:00 10,6 8,3 5 3 - - NW 1024,9 15 -
10.12.2019 07:00:00 10,0 8,3 5 3 - - SSW 1023,4 15 -
10.12.2019 06:00:00 9,4 7,8 0 0 - - N 1023,2 15 -
10.12.2019 05:00:00 10,0 7,8 5 3 - - WSW 1023,3 16 -
10.12.2019 04:00:00 10,0 7,8 0 0 - - N 1023,5 16 -
10.12.2019 03:00:00 10,6 7,8 0 0 - - N 1023,8 16 -
10.12.2019 02:00:00 11,1 7,8 0 0 - - N 1023,4 16 -
10.12.2019 01:00:00 12,2 7,8 5 3 - - SE 1023,1 16 -
10.12.2019 00:00:00 12,8 8,3 0 0 - - N 1023,3 16 -
09.12.2019 23:00:00 12,2 8,3 8 4 - - NW 1023,4 16 -
09.12.2019 22:00:00 12,8 8,3 5 3 - - NNW 1023,0 16 -
09.12.2019 21:00:00 12,8 8,9 11 6 - - NNW 1023,4 16 -
09.12.2019 20:00:00 12,8 8,9 11 6 - - NW 1022,7 16 -
09.12.2019 19:00:00 12,8 8,9 9 5 - - NW 1022,5 16 -
09.12.2019 18:00:00 12,2 9,4 9 5 - - NW 1022,2 16 -
09.12.2019 17:00:00 12,2 8,9 13 7 - - NW 1021,9 16 -
09.12.2019 16:00:00 13,9 9,4 15 8 - - NW 1021,5 10 -
09.12.2019 15:00:00 14,4 9,4 13 7 - - NNW 1021,5 16 -
09.12.2019 14:00:00 13,3 8,9 11 6 - - NW 1021,3 15 -
09.12.2019 13:00:00 12,8 9,4 8 4 - - N 1022,1 13 -
09.12.2019 12:00:00 13,3 9,4 11 6 - - NNW 1022,8 13 -
09.12.2019 11:00:00 13,3 9,4 8 4 - - N 1023,2 13 -
09.12.2019 10:00:00 13,3 9,4 5 3 - - N 1023,1 13 -
09.12.2019 09:00:00 11,7 10,0 0 0 - - N 1022,6 13 -
09.12.2019 08:00:00 11,1 10,0 8 4 - - SW 1022,0 11 -
09.12.2019 07:00:00 11,1 10,0 8 4 - - SW 1021,8 6 -
09.12.2019 06:00:00 11,7 10,0 8 4 - - WNW 1021,4 8 -
09.12.2019 05:00:00 12,2 10,0 0 0 - - N 1020,5 16 -
09.12.2019 04:00:00 11,7 10,0 8 4 - - WSW 1020,1 15 -
09.12.2019 03:00:00 12,2 10,0 8 4 - - SW 1020,0 16 -
09.12.2019 02:00:00 12,2 10,0 0 0 - - N 1020,1 13 -
09.12.2019 01:00:00 12,2 11,1 0 0 - - N 1020,0 15 -
09.12.2019 00:00:00 12,2 11,1 0 0 - - N 1019,9 13 -
08.12.2019 23:00:00 12,2 11,1 11 6 - - NW 1020,2 13 -
08.12.2019 22:00:00 12,8 11,1 15 8 - - NNW 1019,8 8 -
08.12.2019 21:00:00 12,2 11,1 11 6 - - NW 1018,9 6 -
08.12.2019 20:00:00 12,2 10,6 18 10 - - NNW 1018,4 15 -
08.12.2019 19:00:00 13,3 10,6 15 8 - - NNW 1017,7 16 -
08.12.2019 18:00:00 13,3 10,0 9 5 - - NW 1017,2 16 -
08.12.2019 17:00:00 13,9 10,0 13 7 - - NW 1016,8 16 -
08.12.2019 16:00:00 15,6 10,0 15 8 - - WNW 1016,4 16 -
08.12.2019 15:00:00 16,1 10,6 16 9 - - NNW 1016,1 16 -
08.12.2019 14:00:00 16,1 11,1 15 8 - - NW 1016,0 16 -
08.12.2019 13:00:00 15,0 11,1 13 7 - - NW 1016,1 16 -
08.12.2019 12:00:00 15,0 11,7 13 7 - - NW 1016,5 16 -
08.12.2019 11:00:00 15,0 11,7 0 0 - - N 1016,7 16 -
08.12.2019 10:00:00 14,4 11,7 8 4 - - E 1016,9 16 -
08.12.2019 09:00:00 13,9 12,2 8 4 - - N 1016,4 16 0,0
08.12.2019 08:00:00 13,3 12,8 0 0 - - N 1015,8 11 0,0
08.12.2019 07:00:00 13,3 12,2 5 3 - - - 1015,3 6 0,5
08.12.2019 06:00:00 12,8 11,7 5 3 - - NE 1015,0 13 0,3
08.12.2019 05:00:00 12,2 11,7 0 0 - - N 1014,6 13 0,0
08.12.2019 04:00:00 12,8 11,7 0 0 - - N 1014,5 16 -
08.12.2019 03:00:00 12,2 11,1 0 0 - - N 1014,7 16 0,0
08.12.2019 02:00:00 13,3 11,7 5 3 - - SE 1014,6 16 0,0
08.12.2019 01:00:00 12,8 11,1 9 5 - - ESE 1014,4 16 0,3
08.12.2019 00:00:00 13,9 11,1 8 4 - - S 1014,9 4,8 0,3
07.12.2019 23:00:00 13,9 10,6 11 6 - - S 1014,8 16 -
07.12.2019 22:00:00 13,9 11,1 15 8 - - S 1014,7 16 -
07.12.2019 21:00:00 13,9 12,2 8 4 - - E 1014,5 16 -
07.12.2019 20:00:00 13,9 12,8 9 5 - - ESE 1014,2 16 0,5
07.12.2019 19:00:00 14,4 13,3 9 5 - - ENE 1013,8 4,8 1,8
07.12.2019 18:00:00 15,0 13,3 8 4 - - ESE 1013,4 10 0,8
07.12.2019 17:00:00 15,0 13,3 11 6 - - SSE 1012,9 6 1,5
07.12.2019 16:00:00 15,6 12,8 13 7 - - SE 1013,3 10 0,5
07.12.2019 15:00:00 17,2 12,2 24 13 52 28 SSE 1013,0 15 0,0
07.12.2019 14:00:00 17,2 11,7 31 17 - - S 1013,1 15 0,0
07.12.2019 13:00:00 17,8 11,1 29 16 50 27 S 1013,8 16 0,0
07.12.2019 12:00:00 17,8 11,1 29 16 55 30 S 1014,7 16 0,0
07.12.2019 11:00:00 18,3 11,1 18 10 - - S 1015,4 16 -
07.12.2019 10:00:00 17,2 10,6 24 13 - - S 1015,5 16 -
07.12.2019 09:00:00 16,1 11,1 28 15 - - S 1015,7 16 0,0
07.12.2019 08:00:00 15,6 11,7 21 11 - - S 1015,2 16 0,0
07.12.2019 07:00:00 15,6 11,7 22 12 - - S 1014,8 16 0,0
07.12.2019 06:00:00 15,6 11,7 26 14 - - S 1014,8 16 0,0
07.12.2019 05:00:00 15,6 12,2 21 11 - - S 1014,4 16 0,5
07.12.2019 04:00:00 15,0 12,2 11 6 - - S 1014,5 16 0,3
07.12.2019 03:00:00 15,0 12,2 13 7 - - S 1014,6 16 0,0
07.12.2019 02:00:00 15,0 11,7 21 11 - - S 1014,5 16 0,0
07.12.2019 01:00:00 15,6 11,1 31 17 50 27 SE 1014,0 16 0,0
07.12.2019 00:00:00 15,0 11,1 29 16 48 26 SE 1014,2 16 0,0
06.12.2019 23:00:00 15,0 10,6 37 20 48 26 SSE 1014,9 16 0,0
06.12.2019 22:00:00 15,0 9,4 34 18 54 29 SSE 1014,7 15 0,3
06.12.2019 21:00:00 16,1 8,3 37 20 54 29 SSE 1014,0 15 0,0
06.12.2019 20:00:00 16,7 7,2 29 16 48 26 SSE 1013,8 16 0,0
06.12.2019 19:00:00 17,2 7,8 21 11 - - S 1013,9 16 0,0
06.12.2019 18:00:00 17,8 7,8 26 14 - - SSE 1013,8 16 -
06.12.2019 17:00:00 17,2 8,9 24 13 - - SSE 1013,8 16 -
06.12.2019 16:00:00 16,1 10,6 26 14 - - SSW 1014,1 16 -
06.12.2019 15:00:00 17,8 10,0 26 14 - - SSW 1013,9 16 0,0
06.12.2019 14:00:00 19,4 8,9 28 15 - - SSE 1013,4 16 0,0
06.12.2019 13:00:00 18,9 8,9 22 12 - - SE 1014,1 16 0,0
06.12.2019 12:00:00 18,9 8,9 31 17 - - SE 1014,9 16 0,0
06.12.2019 11:00:00 18,3 10,0 28 15 - - ESE 1016,3 16 -
06.12.2019 10:00:00 16,7 9,4 26 14 - - SE 1017,3 16 -
06.12.2019 09:00:00 15,6 10,0 9 5 - - - 1017,3 16 -
06.12.2019 08:00:00 13,3 9,4 9 5 - - SSW 1017,2 16 -

tt = temperature
td = dewpoint
ff = wind speed
fx = gusts
dd = wind direction
ppp = reduced air pressure
vv = visibility
rr = precipitation

Next stations